Flag for Laos Weather past 2 weeks in Vientiane, Laos

Now
79 °F

Fog.


Feels Like: 82 °F
Forecast: 74 / 93 °F
Wind: 7 mph from East

Location: Vientiane Airport

Current Time: Apr 25, 2015 at 11:28:19 PM

Latest Report: Apr 25, 2015 at 11:00 PM


Visibility: 2 mi

Pressure: 29.95 "Hg

Humidity: 79%

Dew point: 72 °F

Location of VientianeLocation

Historic Weather in Vientiane — Graph

°F

Vientiane temperature yesterday

Maximum temperature yesterday: 93 °F (at 3:00 PM)
Minimum temperature yesterday: 77 °F (at 6:00 AM)
Average temperature yesterday: 85 °F

Past Weeks' High & Low Weather Summary

 TemperatureHumidityPressure
High104 °F (Apr 20, 2:00 PM)100% (Apr 12, 6:00 AM)30.09 "Hg (Apr 12, 6:00 AM)
Low64 °F (Apr 15, 6:00 AM)27% (Apr 14, 6:30 PM)29.59 "Hg (Apr 20, 4:00 PM)
Average84 °F61%29.85 "Hg
* Reported Apr 10 10:00 PM — Apr 25 10:30 PM, Vientiane, Weather by CustomWeather, © 2015

Note: Actual official high and low records may vary slightly from our data, if they occured in-between our weather recording intervals... More about our weather records

Advertising

Vientiane weather history for previous 24 hours

 ConditionsComfort  
Time TempWeatherWind HumidityBarometerVisibility
10:30 PM
Sat, Apr 25
79 °FFog.9 mph79%29.95 "Hg2 mi
10:00 PM79 °FFog.9 mph79%29.95 "Hg2 mi
9:30 PM84 °FFog.12 mph66%29.89 "Hg2 mi
9:00 PM84 °FFog.9 mph66%29.89 "Hg2 mi
8:30 PM84 °FThunderstorms. Passing clouds.2 mph70%29.86 "Hg2 mi
8:00 PM84 °FThunderstorms. Passing clouds.2 mph70%29.86 "Hg2 mi
7:30 PM86 °FFog.2 mph66%29.83 "Hg2 mi
7:00 PM86 °FFog.2 mph66%29.83 "Hg3 mi
6:30 PM88 °FPassing clouds.2 mph59%29.80 "Hg4 mi
6:00 PM88 °FPassing clouds.2 mph59%29.80 "HgN/A
5:30 PM90 °FPassing clouds.5 mph59%29.80 "HgN/A
4:00 PM90 °FPassing clouds.5 mph59%29.83 "HgN/A
3:30 PM88 °FScattered clouds.5 mph62%29.83 "HgN/A
3:00 PM88 °FScattered clouds.5 mph62%29.83 "HgN/A
2:30 PM88 °FScattered clouds.5 mph59%29.86 "HgN/A
2:00 PM88 °FScattered clouds.5 mph59%29.86 "HgN/A
1:30 PM88 °FScattered clouds.5 mph59%29.92 "HgN/A
1:00 PM88 °FScattered clouds.5 mph59%29.92 "HgN/A
12:30 PM84 °FScattered clouds.5 mph70%29.95 "HgN/A
12:00 PM84 °FScattered clouds.5 mph70%29.95 "HgN/A
11:30 AM81 °FScattered clouds.2 mph74%29.98 "HgN/A
11:00 AM81 °FScattered clouds.2 mph74%29.98 "HgN/A
10:30 AM79 °FScattered clouds.2 mph84%29.98 "Hg5 mi
10:00 AM79 °FScattered clouds.2 mph84%29.98 "Hg5 mi
9:30 AM77 °FPartly sunny.2 mph83%29.98 "Hg4 mi
9:00 AM77 °FPartly sunny.2 mph83%29.98 "Hg4 mi
8:30 AM75 °FBroken clouds.2 mph89%29.98 "Hg4 mi
8:00 AM75 °FBroken clouds.2 mph89%29.98 "Hg4 mi
6:30 AM72 °FLight rain. Partly sunny.5 mph94%29.95 "Hg2 mi
6:00 AM72 °FRain. Partly sunny.5 mph94%29.95 "Hg2 mi
Weather by CustomWeather, © 2015

See weather overviewHow to use our weather pages